Location: Clarks Summit,Pa.
(41.5000°N, 75.6000°W)
Time: 00:07:00
(UTC-05:00)

BlueWalker 3 - Visible Passes

Search period start: 09 December 2023 00:00
Search period end: 19 December 2023 00:00
Orbit: 490 x 503 km, 53.2° (Epoch: 08 December)

Date Brightness Start Highest point End Pass type
(mag) Time Alt. Az. Time Alt. Az. Time Alt. Az.
11 Dec 4.6 18:55:26 10° S 18:55:43 11° S 18:55:43 11° S visible
12 Dec 3.8 18:32:43 10° S 18:34:26 20° SSE 18:34:26 20° SSE visible
13 Dec 3.2 18:10:00 10° S 18:13:04 25° SE 18:13:04 25° SE visible
13 Dec 5.3 19:47:37 10° WSW 19:47:38 10° WSW 19:47:38 10° WSW visible
14 Dec 3.3 17:47:15 10° S 17:50:25 25° SE 17:51:37 21° ESE visible
14 Dec 4.5 19:24:51 10° WSW 19:26:11 20° W 19:26:11 20° W visible
15 Dec 3.3 17:24:30 10° S 17:27:39 24° SE 17:30:04 14° E visible
15 Dec 3.5 19:02:04 10° WSW 19:04:38 35° W 19:04:38 35° W visible
16 Dec 3.4 17:01:45 10° S 17:04:52 24° SE 17:08:01 10° ENE visible
16 Dec 2.5 18:39:16 10° WSW 18:43:00 49° NNW 18:43:00 49° NNW visible
17 Dec 2.5 18:16:28 10° WSW 18:20:14 49° NNW 18:21:19 37° NNE visible
18 Dec 2.5 17:53:40 10° WSW 17:57:25 50° NNW 17:59:34 23° NNE visible
18 Dec 5.1 19:33:53 10° NW 19:34:07 11° NW 19:34:07 11° NW visible
